STARLINK-1481 (45742 NORAD) Tracking and Keplerian Element Data

This shows tracking and keplerian element data for the satellite.

Feedback or suggestion? Click here.




ElementValue
Catalog45742
NameSTARLINK-1481
Epoch Orbit461
Epoch Day186.50001157
Epoch Year2020
RAAN193.4448
Inclination53.0003
Eccentricity0.0001237
Argument of Perigee103.4995
Mean Anonmoly114.9312
Mean Motion15.62863291
Decay Rate-0.0043073
L11 45742U 20038N 20186.50001157 -.00430730 00000-0 -49305-2 0 9993
L22 45742 53.0003 193.4448 0001237 103.4995 114.9312 15.62863291 4617

Live tracking and technical data element details for STARLINK-1481 (NORAD 45742). STARLINK-1481 can be tracked NOW for your location showing map with azimuth and elevation plus other details from your city location.

Track the satellite on the map from your city or location and see movement details for azimuth, elevation, latitude, longitude, range, height, and movement on the map or in text.







IsCatalogInMostPopularTable: catalog: 45742, numindb: 4
Update: records affected: 1



GetName: 45742 STARLINK-1481

Hit Count: updated at: Sun, 05 Jul 2020 16:03:10 GMT